FDX910 KMEM-KMIA

Flight info

Callsign FDX910
Flight time 1h 40m
Altitude 37000
Route BBKNG7 KERMI MGMRY ACORI FROGZ5
Aircraft B77L/H-SDE1E2E3FGHIJ2J3J4J5M1RWXY/LB1D1

Departure

Time 2026-05-05 17:45
Airport Memphis International Airport (KMEM)

Arrival

Time 2026-05-05 19:25
Airport Miami International Airport (KMIA)
Time Latitude Longitude Altitude Speed Heading
2026-05-05 17:07 35.05976 -89.96121 335 ft 0 kts 181°
2026-05-05 17:33 35.05983 -89.96121 330 ft 3 kts 181°
2026-05-05 17:33 35.06007 -89.96121 331 ft 3 kts 181°
2026-05-05 17:34 35.06026 -89.96120 330 ft 3 kts 204°
2026-05-05 17:34 35.06038 -89.96105 330 ft 3 kts 269°
2026-05-05 17:34 35.06037 -89.96076 330 ft 3 kts 272°
2026-05-05 17:34 35.06037 -89.96065 330 ft 0 kts 272°
2026-05-05 17:39 35.06037 -89.96072 330 ft 6 kts 272°
2026-05-05 17:39 35.06041 -89.96184 335 ft 15 kts 272°
2026-05-05 17:39 35.06044 -89.96310 335 ft 15 kts 272°
2026-05-05 17:39 35.06045 -89.96436 335 ft 15 kts 260°
2026-05-05 17:40 35.05977 -89.96527 330 ft 15 kts 216°
2026-05-05 17:40 35.05920 -89.96624 331 ft 15 kts 265°
2026-05-05 17:40 35.05920 -89.96750 331 ft 15 kts 272°
2026-05-05 17:40 35.05926 -89.96875 335 ft 15 kts 273°
2026-05-05 17:41 35.05931 -89.97001 335 ft 15 kts 272°
2026-05-05 17:41 35.05929 -89.97126 335 ft 15 kts 254°
2026-05-05 17:41 35.05808 -89.97194 332 ft 20 kts 180°
2026-05-05 17:41 35.05673 -89.97209 331 ft 20 kts 206°
2026-05-05 17:42 35.05584 -89.97333 331 ft 20 kts 235°
2026-05-05 17:42 35.05507 -89.97468 330 ft 19 kts 234°
2026-05-05 17:42 35.05441 -89.97589 327 ft 12 kts 234°
2026-05-05 17:42 35.05377 -89.97614 327 ft 0 kts 178°
2026-05-05 17:44 35.05320 -89.97611 327 ft 36 kts 178°
2026-05-05 17:44 35.04776 -89.97602 324 ft 116 kts 179°
2026-05-05 17:44 35.03766 -89.97541 420 ft 167 kts 176°
2026-05-05 17:45 35.02572 -89.97504 1156 ft 167 kts 179°
2026-05-05 17:45 35.01493 -89.97513 2335 ft 149 kts 183°
2026-05-05 17:45 35.00490 -89.97461 3196 ft 153 kts 184°
2026-05-05 17:45 34.99306 -89.97406 3522 ft 184 kts 181°
2026-05-05 17:46 34.97946 -89.97077 3785 ft 220 kts 167°
2026-05-05 17:46 34.96404 -89.96385 4271 ft 247 kts 163°
2026-05-05 17:46 34.94929 -89.95207 5188 ft 257 kts 140°
2026-05-05 17:46 34.93790 -89.93464 6140 ft 270 kts 133°
2026-05-05 17:47 34.92697 -89.91546 6824 ft 284 kts 123°
2026-05-05 17:47 34.92282 -89.89113 7593 ft 305 kts 92°
2026-05-05 17:47 34.92423 -89.86502 8340 ft 314 kts 91°
2026-05-05 17:47 34.92456 -89.83812 9209 ft 321 kts 94°
2026-05-05 17:48 34.92391 -89.81068 10162 ft 326 kts 96°
2026-05-05 17:48 34.92279 -89.78247 10786 ft 344 kts 96°
2026-05-05 17:48 34.92138 -89.75208 11029 ft 375 kts 96°
2026-05-05 17:48 34.91980 -89.71932 11529 ft 395 kts 95°
2026-05-05 17:49 34.91816 -89.68539 12402 ft 405 kts 95°
2026-05-05 17:49 34.91647 -89.65078 13406 ft 413 kts 95°
2026-05-05 17:49 34.91534 -89.61554 14334 ft 420 kts 91°
2026-05-05 17:49 34.91523 -89.57972 15291 ft 425 kts 90°
2026-05-05 17:50 34.91547 -89.54360 16279 ft 429 kts 89°
2026-05-05 17:50 34.91572 -89.50697 17219 ft 435 kts 89°
2026-05-05 17:50 34.91586 -89.46989 18142 ft 441 kts 89°
2026-05-05 17:50 34.91589 -89.43233 18920 ft 447 kts 89°
2026-05-05 17:51 34.91583 -89.39411 19658 ft 454 kts 89°
2026-05-05 17:51 34.91573 -89.35539 20390 ft 461 kts 89°
2026-05-05 17:51 34.91561 -89.31655 21115 ft 467 kts 89°
2026-05-05 17:51 34.91548 -89.27615 21861 ft 474 kts 89°
2026-05-05 17:52 34.91534 -89.23631 22579 ft 480 kts 89°
2026-05-05 17:52 34.91387 -89.19546 23223 ft 487 kts 97°
2026-05-05 17:52 34.90722 -89.15471 23767 ft 494 kts 104°
2026-05-05 17:52 34.89908 -89.11380 24376 ft 500 kts 104°
2026-05-05 17:53 34.89105 -89.07183 25034 ft 504 kts 103°
2026-05-05 17:53 34.88352 -89.03058 25636 ft 509 kts 102°
2026-05-05 17:53 34.87596 -88.98756 26249 ft 515 kts 102°
2026-05-05 17:53 34.86870 -88.94523 26839 ft 521 kts 101°
2026-05-05 17:54 34.86131 -88.90180 27412 ft 526 kts 101°
2026-05-05 17:54 34.85387 -88.85800 27968 ft 532 kts 101°
2026-05-05 17:54 34.84633 -88.81383 28670 ft 534 kts 101°
2026-05-05 17:54 34.83871 -88.76939 29332 ft 538 kts 101°
2026-05-05 17:55 34.83099 -88.72464 29873 ft 543 kts 101°
2026-05-05 17:55 34.82316 -88.67941 30282 ft 549 kts 101°
2026-05-05 17:55 34.81522 -88.63369 30643 ft 556 kts 101°
2026-05-05 17:55 34.80717 -88.58743 31029 ft 561 kts 101°
2026-05-05 17:56 34.79905 -88.54095 31494 ft 563 kts 101°
2026-05-05 17:56 34.79090 -88.49432 31982 ft 565 kts 100°
2026-05-05 17:56 34.78271 -88.44759 32520 ft 565 kts 100°
2026-05-05 17:56 34.77450 -88.40088 33112 ft 565 kts 100°
2026-05-05 17:57 34.76626 -88.35406 33555 ft 567 kts 100°
2026-05-05 17:57 34.75797 -88.30702 33942 ft 571 kts 100°
2026-05-05 17:57 34.74961 -88.25975 34341 ft 572 kts 100°
2026-05-05 17:57 34.74034 -88.21288 34775 ft 571 kts 108°
2026-05-05 17:58 34.72321 -88.16938 35079 ft 571 kts 126°
2026-05-05 17:58 34.69821 -88.13202 35246 ft 571 kts 141°
2026-05-05 17:58 34.66701 -88.10292 35455 ft 558 kts 157°
2026-05-05 17:58 34.63345 -88.07986 35971 ft 553 kts 158°
2026-05-05 17:59 34.60044 -88.05638 36671 ft 547 kts 156°
2026-05-05 17:59 34.56824 -88.03277 36995 ft 551 kts 155°
2026-05-05 17:59 34.53535 -88.00823 36950 ft 558 kts 155°
2026-05-05 18:00 34.46962 -87.95848 36941 ft 555 kts 155°
2026-05-05 18:00 34.40431 -87.90903 36958 ft 554 kts 155°
2026-05-05 18:01 34.33849 -87.85962 36964 ft 559 kts 155°
2026-05-05 18:01 34.27209 -87.81000 36955 ft 562 kts 155°
2026-05-05 18:02 34.20550 -87.76030 36954 ft 562 kts 155°
2026-05-05 18:02 34.13906 -87.71074 36949 ft 560 kts 156°
2026-05-05 18:03 34.07281 -87.66131 36970 ft 559 kts 155°
2026-05-05 18:03 34.00662 -87.61223 36971 ft 558 kts 156°
2026-05-05 18:04 33.94052 -87.56338 36994 ft 557 kts 155°
2026-05-05 18:04 33.87453 -87.51452 37006 ft 556 kts 156°
2026-05-05 18:05 33.80852 -87.46575 37021 ft 557 kts 156°
2026-05-05 18:05 33.74235 -87.41698 36948 ft 558 kts 156°
2026-05-05 18:06 33.67607 -87.36820 36958 ft 559 kts 156°
2026-05-05 18:06 33.60970 -87.31947 36949 ft 559 kts 155°
2026-05-05 18:07 33.54336 -87.27082 36951 ft 559 kts 156°
2026-05-05 18:07 33.47692 -87.22210 36950 ft 560 kts 156°
2026-05-05 18:08 33.41039 -87.17357 37007 ft 560 kts 155°
2026-05-05 18:08 33.34384 -87.12505 37021 ft 560 kts 156°
2026-05-05 18:09 33.27731 -87.07669 37027 ft 559 kts 156°
2026-05-05 18:09 33.21086 -87.02842 37036 ft 558 kts 156°
2026-05-05 18:10 33.14449 -86.98028 37029 ft 558 kts 156°
2026-05-05 18:10 33.07813 -86.93222 37035 ft 557 kts 155°
2026-05-05 18:11 33.01232 -86.88467 37000 ft 557 kts 156°
2026-05-05 18:11 32.94567 -86.83661 36998 ft 556 kts 156°
2026-05-05 18:12 32.87950 -86.78896 37002 ft 556 kts 156°
2026-05-05 18:12 32.81329 -86.74138 36996 ft 556 kts 155°
2026-05-05 18:13 32.74750 -86.69418 36998 ft 556 kts 156°
2026-05-05 18:13 32.68128 -86.64673 36985 ft 556 kts 155°
2026-05-05 18:14 32.61490 -86.59931 37017 ft 557 kts 156°
2026-05-05 18:14 32.54854 -86.55193 37014 ft 557 kts 155°
2026-05-05 18:15 32.48216 -86.50462 37029 ft 557 kts 155°
2026-05-05 18:15 32.41573 -86.45737 37026 ft 557 kts 155°
2026-05-05 18:16 32.34928 -86.41018 37025 ft 557 kts 155°
2026-05-05 18:16 32.28276 -86.36301 37022 ft 557 kts 155°
2026-05-05 18:17 32.21706 -86.31419 37055 ft 561 kts 150°
2026-05-05 18:17 32.15687 -86.25458 37057 ft 567 kts 142°
2026-05-05 18:18 32.09812 -86.19244 37050 ft 567 kts 143°
2026-05-05 18:18 32.03901 -86.13088 37063 ft 567 kts 143°
2026-05-05 18:19 31.97961 -86.06978 37064 ft 566 kts 143°
2026-05-05 18:19 31.92024 -86.00887 37077 ft 566 kts 143°
2026-05-05 18:20 31.86087 -85.94801 37070 ft 566 kts 143°
2026-05-05 18:20 31.80149 -85.88715 37072 ft 566 kts 143°
2026-05-05 18:21 31.74377 -85.82495 37060 ft 569 kts 137°
2026-05-05 18:21 31.69080 -85.75561 37047 ft 571 kts 133°
2026-05-05 18:22 31.63911 -85.68504 37051 ft 570 kts 134°
2026-05-05 18:22 31.58624 -85.61561 37049 ft 569 kts 135°
2026-05-05 18:23 31.53283 -85.54710 37053 ft 569 kts 136°
2026-05-05 18:23 31.47944 -85.47855 37089 ft 569 kts 135°
2026-05-05 18:24 31.42620 -85.40990 37074 ft 569 kts 135°
2026-05-05 18:24 31.37303 -85.34134 37097 ft 568 kts 135°
2026-05-05 18:25 31.31984 -85.27291 37066 ft 568 kts 135°
2026-05-05 18:25 31.26662 -85.20461 37066 ft 568 kts 135°
2026-05-05 18:26 31.21335 -85.13637 37088 ft 568 kts 135°
2026-05-05 18:26 31.16007 -85.06822 37062 ft 568 kts 135°
2026-05-05 18:27 31.10681 -85.00025 37067 ft 567 kts 135°
2026-05-05 18:27 31.05353 -84.93234 37066 ft 567 kts 135°
2026-05-05 18:28 30.97370 -84.83083 37078 ft 566 kts 135°
2026-05-05 18:28 30.92046 -84.76329 37059 ft 566 kts 135°
2026-05-05 18:29 30.86723 -84.69589 37057 ft 566 kts 135°
2026-05-05 18:29 30.81396 -84.62853 37052 ft 565 kts 135°
2026-05-05 18:30 30.76072 -84.56136 37057 ft 565 kts 135°
2026-05-05 18:30 30.70751 -84.49432 37064 ft 564 kts 135°
2026-05-05 18:31 30.65423 -84.42731 37066 ft 564 kts 135°
2026-05-05 18:31 30.60129 -84.36086 37068 ft 564 kts 135°
2026-05-05 18:32 30.54798 -84.29404 37072 ft 564 kts 135°
2026-05-05 18:32 30.49463 -84.22728 37076 ft 564 kts 135°
2026-05-05 18:33 30.44125 -84.16062 37074 ft 564 kts 135°
2026-05-05 18:33 30.38779 -84.09397 37070 ft 564 kts 136°
2026-05-05 18:34 30.33707 -84.04763 37083 ft 548 kts 156°
2026-05-05 18:34 30.27016 -84.00551 37076 ft 548 kts 158°
2026-05-05 18:35 30.20359 -83.96345 37076 ft 549 kts 156°
2026-05-05 18:35 30.13667 -83.91949 37081 ft 550 kts 155°
2026-05-05 18:36 30.07067 -83.87562 37089 ft 552 kts 155°
2026-05-05 18:36 30.00399 -83.83147 37084 ft 552 kts 155°
2026-05-05 18:37 29.93727 -83.78750 37063 ft 552 kts 155°
2026-05-05 18:37 29.87065 -83.74366 37070 ft 551 kts 155°
2026-05-05 18:38 29.80407 -83.69991 37081 ft 551 kts 155°
2026-05-05 18:38 29.73754 -83.65631 37066 ft 550 kts 155°
2026-05-05 18:39 29.67103 -83.61277 37037 ft 550 kts 155°
2026-05-05 18:39 29.60466 -83.56937 37076 ft 548 kts 155°
2026-05-05 18:40 29.53839 -83.52609 37076 ft 548 kts 155°
2026-05-05 18:40 29.47218 -83.48293 37075 ft 547 kts 155°
2026-05-05 18:41 29.40592 -83.43981 37072 ft 547 kts 155°
2026-05-05 18:41 29.33972 -83.39677 37060 ft 547 kts 155°
2026-05-05 18:42 29.27401 -83.35411 37071 ft 546 kts 155°
2026-05-05 18:42 29.20676 -83.31421 37082 ft 542 kts 161°
2026-05-05 18:43 29.13760 -83.28030 37070 ft 540 kts 163°
2026-05-05 18:43 29.06830 -83.24689 37043 ft 541 kts 162°
2026-05-05 18:44 28.99936 -83.21253 37062 ft 541 kts 162°
2026-05-05 18:44 28.93059 -83.17769 37069 ft 541 kts 161°
2026-05-05 18:45 28.86182 -83.14285 37075 ft 541 kts 161°
2026-05-05 18:45 28.79292 -83.10809 37062 ft 541 kts 162°
2026-05-05 18:46 28.72406 -83.07345 37060 ft 541 kts 161°
2026-05-05 18:46 28.65530 -83.03891 37066 ft 541 kts 161°
2026-05-05 18:47 28.58646 -83.00438 37060 ft 541 kts 161°
2026-05-05 18:47 28.51763 -82.96989 37060 ft 541 kts 161°
2026-05-05 18:48 28.44879 -82.93546 37052 ft 540 kts 161°
2026-05-05 18:48 28.38012 -82.90115 37058 ft 539 kts 161°
2026-05-05 18:49 28.31141 -82.86687 37061 ft 539 kts 161°
2026-05-05 18:49 28.24282 -82.83270 37056 ft 539 kts 161°
2026-05-05 18:50 28.17420 -82.79856 37028 ft 538 kts 161°
2026-05-05 18:50 28.10570 -82.76453 37063 ft 538 kts 161°
2026-05-05 18:51 28.03757 -82.73072 37055 ft 538 kts 161°
2026-05-05 18:51 27.96693 -82.70475 37075 ft 524 kts 176°
2026-05-05 18:52 27.89501 -82.69249 37073 ft 522 kts 179°
2026-05-05 18:52 27.82354 -82.68039 37047 ft 524 kts 177°
2026-05-05 18:53 27.75167 -82.66654 37063 ft 525 kts 176°
2026-05-05 18:53 27.67966 -82.65215 37061 ft 525 kts 176°
2026-05-05 18:54 27.60769 -82.63793 37052 ft 525 kts 176°
2026-05-05 18:54 27.53565 -82.62380 37051 ft 526 kts 176°
2026-05-05 18:55 27.46402 -82.60538 37052 ft 531 kts 171°
2026-05-05 18:55 27.39281 -82.58314 37078 ft 531 kts 170°
2026-05-05 18:56 27.32154 -82.56131 37060 ft 530 kts 171°
2026-05-05 18:56 27.25025 -82.54031 37050 ft 530 kts 171°
2026-05-05 18:57 27.17917 -82.51960 37034 ft 520 kts 171°
2026-05-05 18:57 27.11031 -82.49945 37043 ft 508 kts 171°
2026-05-05 18:58 27.04195 -82.47955 37046 ft 507 kts 171°
2026-05-05 18:58 26.97372 -82.45967 37047 ft 507 kts 171°
2026-05-05 18:59 26.90671 -82.43503 37030 ft 514 kts 152°
2026-05-05 18:59 26.87811 -82.41097 37056 ft 515 kts 140°
2026-05-05 18:59 26.85137 -82.38409 37059 ft 518 kts 139°
2026-05-05 19:00 26.79756 -82.33019 36979 ft 518 kts 140°
2026-05-05 19:00 26.77047 -82.30371 36562 ft 515 kts 140°
2026-05-05 19:00 26.74375 -82.27798 36081 ft 513 kts 141°
2026-05-05 19:01 26.71668 -82.25211 35617 ft 510 kts 141°
2026-05-05 19:01 26.68979 -82.22649 35207 ft 507 kts 141°
2026-05-05 19:01 26.66305 -82.20100 34785 ft 503 kts 141°
2026-05-05 19:01 26.63647 -82.17565 34240 ft 503 kts 141°
2026-05-05 19:02 26.60987 -82.15027 33619 ft 503 kts 141°
2026-05-05 19:02 26.58331 -82.12491 32934 ft 500 kts 141°
2026-05-05 19:02 26.55715 -82.09994 32245 ft 489 kts 141°
2026-05-05 19:02 26.53158 -82.07556 31575 ft 477 kts 141°
2026-05-05 19:03 26.50687 -82.05145 30920 ft 467 kts 140°
2026-05-05 19:03 26.48296 -82.02738 30283 ft 457 kts 139°
2026-05-05 19:03 26.45969 -82.00369 29582 ft 449 kts 139°
2026-05-05 19:03 26.43682 -81.98040 28850 ft 442 kts 140°
2026-05-05 19:04 26.41413 -81.95742 28141 ft 440 kts 140°
2026-05-05 19:04 26.39130 -81.93440 27490 ft 445 kts 140°
2026-05-05 19:04 26.36822 -81.91120 26836 ft 449 kts 140°
2026-05-05 19:04 26.34491 -81.88779 26193 ft 453 kts 140°
2026-05-05 19:05 26.32157 -81.86435 25524 ft 447 kts 140°
2026-05-05 19:05 26.29878 -81.84144 24864 ft 435 kts 140°
2026-05-05 19:05 26.27686 -81.81944 24237 ft 424 kts 140°
2026-05-05 19:05 26.25522 -81.79774 23613 ft 414 kts 140°
2026-05-05 19:06 26.23518 -81.77522 22865 ft 407 kts 128°
2026-05-05 19:06 26.22164 -81.74800 22157 ft 397 kts 114°
2026-05-05 19:06 26.21026 -81.72030 21480 ft 390 kts 114°
2026-05-05 19:06 26.19896 -81.69312 20806 ft 384 kts 115°
2026-05-05 19:07 26.18762 -81.66631 20156 ft 381 kts 115°
2026-05-05 19:07 26.17623 -81.63974 19543 ft 379 kts 115°
2026-05-05 19:07 26.16476 -81.61321 19074 ft 382 kts 115°
2026-05-05 19:07 26.15316 -81.58651 18644 ft 384 kts 115°
2026-05-05 19:08 26.14156 -81.55986 18162 ft 379 kts 115°
2026-05-05 19:08 26.13022 -81.53386 17632 ft 368 kts 115°
2026-05-05 19:08 26.11922 -81.50866 17141 ft 357 kts 115°
2026-05-05 19:08 26.10849 -81.48406 16812 ft 352 kts 116°
2026-05-05 19:09 26.09770 -81.45933 16485 ft 358 kts 116°
2026-05-05 19:09 26.08678 -81.43434 16138 ft 359 kts 116°
2026-05-05 19:09 26.07589 -81.40943 15780 ft 357 kts 116°
2026-05-05 19:09 26.06507 -81.38469 15411 ft 354 kts 116°
2026-05-05 19:10 26.05442 -81.36025 15074 ft 350 kts 116°
2026-05-05 19:10 26.04384 -81.33596 14732 ft 347 kts 116°
2026-05-05 19:10 26.03337 -81.31193 14398 ft 344 kts 116°
2026-05-05 19:10 26.02299 -81.28811 14067 ft 341 kts 116°
2026-05-05 19:11 26.01268 -81.26446 13708 ft 339 kts 117°
2026-05-05 19:11 26.00245 -81.24101 13341 ft 335 kts 117°
2026-05-05 19:11 25.99231 -81.21780 13007 ft 332 kts 117°
2026-05-05 19:11 25.98230 -81.19487 12672 ft 327 kts 117°
2026-05-05 19:12 25.97242 -81.17227 12344 ft 324 kts 117°
2026-05-05 19:12 25.96255 -81.14971 12044 ft 324 kts 117°
2026-05-05 19:12 25.95283 -81.12752 11730 ft 322 kts 117°
2026-05-05 19:12 25.94298 -81.10500 11408 ft 318 kts 117°
2026-05-05 19:13 25.93335 -81.08303 11101 ft 315 kts 117°
2026-05-05 19:13 25.92391 -81.06149 10812 ft 315 kts 117°
2026-05-05 19:13 25.91432 -81.03964 10498 ft 313 kts 117°
2026-05-05 19:13 25.90535 -81.01784 10173 ft 304 kts 114°
2026-05-05 19:14 25.89739 -80.99672 9864 ft 290 kts 114°
2026-05-05 19:14 25.88964 -80.97605 9573 ft 291 kts 114°
2026-05-05 19:14 25.88178 -80.95528 9285 ft 292 kts 114°
2026-05-05 19:14 25.87388 -80.93460 8977 ft 290 kts 114°
2026-05-05 19:15 25.86606 -80.91418 8720 ft 285 kts 114°
2026-05-05 19:15 25.85831 -80.89396 8462 ft 284 kts 114°
2026-05-05 19:15 25.85054 -80.87377 8225 ft 285 kts 114°
2026-05-05 19:15 25.84275 -80.85350 7960 ft 285 kts 114°
2026-05-05 19:16 25.83496 -80.83325 7694 ft 285 kts 114°
2026-05-05 19:16 25.82721 -80.81310 7426 ft 283 kts 114°
2026-05-05 19:16 25.81950 -80.79311 7160 ft 281 kts 114°
2026-05-05 19:16 25.81187 -80.77329 6898 ft 277 kts 114°
2026-05-05 19:17 25.80433 -80.75373 6641 ft 274 kts 114°
2026-05-05 19:17 25.79688 -80.73440 6388 ft 271 kts 114°
2026-05-05 19:17 25.78949 -80.71525 6115 ft 269 kts 114°
2026-05-05 19:17 25.78361 -80.69594 5829 ft 263 kts 96°
2026-05-05 19:18 25.78413 -80.67568 5633 ft 266 kts 85°
2026-05-05 19:18 25.78529 -80.65492 5378 ft 272 kts 87°
2026-05-05 19:18 25.78645 -80.63390 5119 ft 272 kts 85°
2026-05-05 19:18 25.78767 -80.61339 4830 ft 256 kts 86°
2026-05-05 19:19 25.78856 -80.59455 4565 ft 234 kts 87°
2026-05-05 19:19 25.78929 -80.57740 4332 ft 212 kts 87°
2026-05-05 19:19 25.78994 -80.56165 4204 ft 199 kts 86°
2026-05-05 19:19 25.79056 -80.54648 4008 ft 199 kts 87°
2026-05-05 19:20 25.79120 -80.53120 3793 ft 198 kts 86°
2026-05-05 19:20 25.79183 -80.51594 3582 ft 197 kts 86°
2026-05-05 19:20 25.79245 -80.50078 3367 ft 196 kts 85°
2026-05-05 19:20 25.79308 -80.48564 3119 ft 196 kts 85°
2026-05-05 19:21 25.79369 -80.47092 2892 ft 185 kts 86°
2026-05-05 19:21 25.79425 -80.45712 2656 ft 170 kts 85°
2026-05-05 19:21 25.79476 -80.44459 2429 ft 155 kts 85°
2026-05-05 19:21 25.79524 -80.43312 2272 ft 147 kts 85°
2026-05-05 19:22 25.79572 -80.42172 2080 ft 148 kts 85°
2026-05-05 19:22 25.79619 -80.41041 1865 ft 145 kts 85°
2026-05-05 19:22 25.79664 -80.39925 1700 ft 145 kts 84°
2026-05-05 19:22 25.79712 -80.38794 1506 ft 148 kts 85°
2026-05-05 19:23 25.79758 -80.37680 1308 ft 143 kts 85°
2026-05-05 19:23 25.79803 -80.36585 1119 ft 142 kts 86°
2026-05-05 19:23 25.79848 -80.35483 968 ft 145 kts 85°
2026-05-05 19:23 25.79894 -80.34383 777 ft 140 kts 86°
2026-05-05 19:24 25.79938 -80.33319 616 ft 137 kts 86°
2026-05-05 19:24 25.79984 -80.32256 427 ft 140 kts 87°
2026-05-05 19:24 25.80028 -80.31160 217 ft 140 kts 86°
2026-05-05 19:24 25.80065 -80.30112 86 ft 134 kts 87°
2026-05-05 19:25 25.80098 -80.29118 22 ft 118 kts 85°
2026-05-05 19:25 25.80138 -80.28427 20 ft 50 kts 87°
2026-05-05 19:25 25.80194 -80.28224 18 ft 7 kts 49°
2026-05-05 19:25 25.80203 -80.28215 18 ft 0 kts 39°
2026-05-05 19:28 25.80219 -80.28209 18 ft 9 kts
2026-05-05 19:28 25.80239 -80.28212 19 ft 5 kts 348°
2026-05-05 19:28 25.80262 -80.28222 19 ft 0 kts 333°
2026-05-05 19:29 25.80294 -80.28245 19 ft 9 kts 322°
2026-05-05 19:29 25.80337 -80.28302 20 ft 9 kts 313°
2026-05-05 19:29 25.80395 -80.28300 20 ft 10 kts 34°
2026-05-05 19:30 25.80453 -80.28278 20 ft 8 kts 339°
2026-05-05 19:30 25.80474 -80.28338 20 ft 10 kts 275°
2026-05-05 19:30 25.80473 -80.28421 20 ft 12 kts 267°
2026-05-05 19:30 25.80469 -80.28518 19 ft 13 kts 266°
2026-05-05 19:31 25.80463 -80.28625 20 ft 14 kts 266°
2026-05-05 19:31 25.80457 -80.28740 20 ft 15 kts 268°
2026-05-05 19:31 25.80454 -80.28863 19 ft 16 kts 269°
2026-05-05 19:31 25.80449 -80.28988 19 ft 16 kts 265°
2026-05-05 19:32 25.80441 -80.29112 19 ft 16 kts 268°
2026-05-05 19:32 25.80441 -80.29238 20 ft 17 kts 270°
2026-05-05 19:32 25.80436 -80.29363 20 ft 6 kts 268°
2026-05-05 19:32 25.80460 -80.29394 19 ft 0 kts 346°
2026-05-05 19:33 25.80489 -80.29390 19 ft 4 kts
2026-05-05 19:33 25.80509 -80.29388 19 ft 1 kts
2026-05-05 19:33 25.80512 -80.29388 19 ft 0 kts